CSG-1

Last updated on Sun Jul 06 2025 00:02:29 GMT+0000 (Coordinated Universal Time)

1 44873U 19092A 25186.58737590 .00000368 00000+0 52787-4 0 9992 2 44873 97.8879 10.2133 0001520 87.4420 272.6967 14.82154927300138
UTC large
Height (km)
Speed (km/s)
/
Latitude / Longitude
Inclination (degrees)
Orbital Period (minutes)
Azimuth
Elevation
Range (km)
Doppler Factor

Next 0 passes for location: London (51.5072 / 0.1276)

Sorry there are no passes over London.